Location: Ferintosh
(52.7647°N, 112.9692°W)
Time: 19:30:53
(UTC+00:00)

A-11 Canister half - Pass Details

Date: 29 May 2024
Orbit: 1515 x 1685 km, 47.2° (Epoch: 12 June)

Event Time Altitude Azimuth Distance (km) Brightness Sun altitude
Rises 12:29:24 0° 278° (W) 4,735 11.1 8.6°
Reaches altitude 10° 12:32:36 10° 274° (W) 3,730 10.5 9.0°
Maximum altitude 12:41:29 50° 202° (SSW) 1,864 9.4 10.3°
Drops below altitude 10° 12:50:14 10° 131° (SE) 3,670 11.5 11.5°
Sets 12:53:21 0° 126° (SE) 4,653 12.0 11.9°
